contact:dominique.lefevre@mio.osupytheas.fr, maurice.libes@osupytheas.fr, didier.mallarino@osupytheas.fr
Project:EMSO http://www.emso-fr.org/EMSO-France
Depth: 2436.0 m
Title:EMSO Ligure Ouest : Data MII capteur AQUADOPP
Date,Latitude,Longitude,X_East,Y_North,Z_Up,Amplitude_X,Amplitude_Y,Amplitude_Z,Batterie,SoundSpeed,Heading,Pitch,Roll,Pressure,TIS,Speed,Direction
, degrees North, degrees East, m.s-1, m.s-1,m.s-1, 1, 1, 1, Volt, m.s-1, degree, degree, degree, dbar, degree_C, m.s-1, degree
2021-05-17T00:04:03,42.805,6.029,-0.072,0.004,-0.033,102.0,101.0,100.0,13.4,1505.2,328.2,-0.7,1.8,2470.542,13.28,0.072,273.2
2021-05-17T00:07:03,42.805,6.029,-0.042,-0.018,-0.02,102.0,101.0,101.0,13.3,1505.2,324.1,-0.7,1.8,2470.548,13.28,0.045,246.8
2021-05-17T00:10:03,42.805,6.029,-0.054,-0.028,0.002,102.0,102.0,100.0,13.3,1505.2,327.3,-0.8,1.8,2470.531,13.28,0.06,242.6
2021-05-17T00:13:03,42.805,6.029,-0.054,-0.044,-0.017,102.0,101.0,100.0,13.4,1505.2,325.2,-0.8,1.8,2470.555,13.28,0.069,230.8
2021-05-17T00:16:03,42.805,6.029,-0.073,-0.024,-0.007,101.0,101.0,100.0,13.4,1505.2,329.0,-0.7,1.8,2470.559,13.28,0.076,251.8
2021-05-17T00:19:03,42.805,6.029,-0.078,-0.039,0.007,102.0,100.0,101.0,13.4,1505.2,328.0,-0.7,1.8,2470.527,13.28,0.087,243.4
2021-05-17T00:22:03,42.805,6.029,-0.09,-0.002,-0.032,101.0,102.0,100.0,13.4,1505.2,325.7,-0.8,1.8,2470.482,13.28,0.09,268.7
2021-05-17T00:25:03,42.805,6.029,-0.072,-0.036,-0.027,101.0,103.0,100.0,13.4,1505.2,326.8,-0.8,1.8,2470.569,13.28,0.08,243.4
2021-05-17T00:28:03,42.805,6.029,-0.064,0.0,-0.009,101.0,101.0,101.0,13.3,1505.2,329.2,-0.8,1.8,2470.525,13.28,0.063,270.0
2021-05-17T00:31:03,42.805,6.029,-0.072,-0.015,-0.042,102.0,102.0,101.0,13.3,1505.2,329.3,-0.7,1.8,2470.537,13.28,0.073,258.2
2021-05-17T00:34:03,42.805,6.029,-0.07,-0.041,-0.032,102.0,101.0,100.0,13.4,1505.2,328.6,-0.7,1.9,2470.547,13.28,0.081,239.6
2021-05-17T00:37:03,42.805,6.029,-0.052,0.006,-0.028,102.0,102.0,100.0,13.4,1505.2,328.0,-0.8,1.8,2470.535,13.28,0.052,276.6
2021-05-17T00:40:03,42.805,6.029,-0.091,-0.02,-0.034,102.0,101.0,100.0,13.4,1505.2,328.1,-0.8,1.8,2470.531,13.28,0.093,257.6
2021-05-17T00:43:03,42.805,6.029,-0.094,-0.028,-0.048,102.0,102.0,100.0,13.4,1505.2,325.6,-0.8,1.8,2470.515,13.28,0.098,253.4
2021-05-17T00:46:03,42.805,6.029,-0.062,-0.036,0.012,102.0,102.0,99.0,13.4,1505.2,327.9,-0.7,1.9,2470.532,13.28,0.071,239.9
2021-05-17T00:49:03,42.805,6.029,-0.072,-0.032,-0.027,102.0,101.0,101.0,13.4,1505.2,326.2,-0.7,1.8,2470.535,13.28,0.078,246.0
2021-05-17T00:52:03,42.805,6.029,-0.038,-0.012,-0.016,102.0,101.0,100.0,13.4,1505.2,327.0,-0.7,1.8,2470.544,13.28,0.039,252.5
2021-05-17T00:55:03,42.805,6.029,-0.066,-0.031,-0.014,103.0,99.0,100.0,13.4,1505.2,327.3,-0.8,1.8,2470.553,13.28,0.072,244.8
2021-05-17T00:58:03,42.805,6.029,-0.035,-0.043,-0.021,101.0,101.0,101.0,13.4,1505.2,325.9,-0.7,1.8,2470.458,13.28,0.055,219.1
2021-05-17T01:04:03,42.805,6.029,-0.051,-0.009,-0.012,102.0,102.0,101.0,13.4,1505.2,326.4,-0.7,1.8,2470.525,13.28,0.051,260.0
2021-05-17T01:07:03,42.805,6.029,-0.054,-0.008,-0.005,101.0,102.0,101.0,13.4,1505.2,329.8,-0.8,1.8,2470.524,13.28,0.054,261.6
2021-05-17T01:10:03,42.805,6.029,-0.038,-0.034,-0.039,102.0,101.0,100.0,13.4,1505.2,327.4,-0.7,1.8,2470.526,13.28,0.05,228.2
2021-05-17T01:13:03,42.805,6.029,-0.074,-0.019,-0.005,101.0,100.0,101.0,13.4,1505.2,327.4,-0.8,1.8,2470.483,13.28,0.076,255.6
2021-05-17T01:16:03,42.805,6.029,-0.035,-0.015,0.011,103.0,101.0,100.0,13.4,1505.2,328.9,-0.8,1.8,2470.501,13.28,0.038,246.8
2021-05-17T01:19:03,42.805,6.029,-0.083,-0.014,-0.055,101.0,101.0,100.0,13.4,1505.2,327.7,-0.8,1.8,2470.494,13.28,0.084,260.4
2021-05-17T01:22:03,42.805,6.029,-0.081,-0.017,-0.01,99.0,100.0,101.0,13.4,1505.2,326.0,-0.8,1.9,2470.514,13.28,0.082,258.1
2021-05-17T01:25:03,42.805,6.029,-0.063,-0.007,0.001,101.0,101.0,100.0,13.4,1505.2,326.0,-0.7,1.9,2470.535,13.28,0.063,263.7
2021-05-17T01:28:03,42.805,6.029,-0.067,-0.022,-0.024,101.0,100.0,100.0,13.4,1505.2,326.1,-0.8,1.8,2470.485,13.28,0.07,251.8
2021-05-17T01:31:03,42.805,6.029,-0.072,-0.029,-0.032,102.0,99.0,100.0,13.4,1505.2,329.2,-0.7,1.8,2470.499,13.28,0.077,248.1
2021-05-17T01:34:03,42.805,6.029,-0.06,-0.02,-0.02,101.0,99.0,101.0,13.4,1505.2,324.7,-0.8,1.8,2470.452,13.28,0.063,251.6
2021-05-17T01:37:03,42.805,6.029,-0.068,-0.046,-0.047,101.0,100.0,100.0,13.3,1505.2,326.0,-0.7,1.8,2470.529,13.28,0.082,235.9
2021-05-17T01:40:03,42.805,6.029,-0.047,-0.023,-0.023,101.0,100.0,100.0,13.3,1505.2,325.7,-0.8,1.8,2470.523,13.28,0.052,243.9
2021-05-17T01:43:03,42.805,6.029,-0.061,-0.025,-0.019,103.0,101.0,99.0,13.4,1505.2,329.4,-0.8,1.8,2470.5,13.28,0.065,247.7
2021-05-17T01:46:03,42.805,6.029,-0.055,-0.037,-0.002,101.0,102.0,99.0,13.4,1505.2,325.7,-0.8,1.8,2470.506,13.28,0.066,236.1
2021-05-17T01:49:03,42.805,6.029,-0.064,0.0,-0.011,100.0,101.0,100.0,13.4,1505.2,326.4,-0.8,1.8,2470.543,13.28,0.063,270.0
2021-05-17T01:52:03,42.805,6.029,-0.073,-0.001,-0.01,100.0,100.0,99.0,13.4,1505.2,324.1,-0.7,1.8,2470.505,13.28,0.073,269.2
2021-05-17T01:55:03,42.805,6.029,-0.074,-0.02,-0.011,101.0,100.0,100.0,13.4,1505.2,328.9,-0.7,1.8,2470.469,13.28,0.076,254.9
2021-05-17T01:58:03,42.805,6.029,-0.068,-0.011,-0.032,101.0,100.0,98.0,13.4,1505.2,327.0,-0.7,1.8,2470.48,13.28,0.068,260.8
2021-05-17T02:04:03,42.805,6.029,-0.097,-0.006,-0.005,101.0,100.0,100.0,13.4,1505.2,325.2,-0.8,1.9,2470.478,13.28,0.097,266.5
2021-05-17T02:07:03,42.805,6.029,-0.057,-0.025,-0.037,100.0,100.0,100.0,13.3,1505.2,329.2,-0.8,1.9,2470.52,13.28,0.062,246.3
2021-05-17T02:10:03,42.805,6.029,-0.06,-0.027,-0.009,101.0,99.0,101.0,13.4,1505.2,328.0,-0.8,1.8,2470.465,13.28,0.065,245.8
2021-05-17T02:13:03,42.805,6.029,-0.053,-0.019,0.0,100.0,101.0,99.0,13.4,1505.2,324.6,-0.8,1.8,2470.488,13.28,0.056,250.3
2021-05-17T02:16:03,42.805,6.029,-0.064,-0.018,-0.01,100.0,102.0,100.0,13.4,1505.2,328.6,-0.8,1.8,2470.475,13.28,0.066,254.3
2021-05-17T02:19:03,42.805,6.029,-0.076,-0.024,0.011,101.0,99.0,100.0,13.4,1505.2,328.3,-0.8,1.8,2470.461,13.28,0.079,252.5
2021-05-17T02:22:03,42.805,6.029,-0.042,-0.007,-0.006,101.0,100.0,99.0,13.4,1505.2,325.0,-0.8,1.8,2470.48,13.28,0.042,260.5
2021-05-17T02:25:03,42.805,6.029,-0.073,-0.015,-0.009,101.0,100.0,100.0,13.4,1505.2,326.0,-0.8,1.9,2470.453,13.28,0.074,258.4
2021-05-17T02:28:03,42.805,6.029,-0.04,-0.01,-0.011,100.0,101.0,99.0,13.4,1505.2,329.4,-0.7,1.8,2470.494,13.28,0.041,256.0
2021-05-17T02:31:03,42.805,6.029,-0.043,-0.011,-0.007,100.0,101.0,102.0,13.4,1505.2,325.3,-0.7,1.8,2470.454,13.28,0.044,255.7
2021-05-17T02:34:03,42.805,6.029,-0.043,-0.028,-0.002,102.0,100.0,100.0,13.3,1505.2,324.6,-0.8,1.8,2470.471,13.28,0.051,236.9
2021-05-17T02:37:03,42.805,6.029,-0.037,-0.028,-0.005,101.0,98.0,100.0,13.4,1505.2,325.0,-0.8,1.8,2470.484,13.28,0.046,232.9
2021-05-17T02:40:03,42.805,6.029,-0.026,-0.028,0.0,99.0,101.0,100.0,13.4,1505.2,324.2,-0.8,1.8,2470.533,13.28,0.038,222.9
2021-05-17T02:43:03,42.805,6.029,-0.065,-0.025,-0.008,100.0,100.0,100.0,13.4,1505.2,329.2,-0.8,1.8,2470.445,13.28,0.069,249.0
2021-05-17T02:46:03,42.805,6.029,-0.048,-0.018,0.016,101.0,100.0,100.0,13.4,1505.2,325.7,-0.8,1.8,2470.467,13.28,0.051,249.4
2021-05-17T02:49:03,42.805,6.029,-0.068,-0.003,-0.031,101.0,100.0,100.0,13.3,1505.2,327.6,-0.7,1.8,2470.479,13.28,0.068,267.5
2021-05-17T02:52:03,42.805,6.029,-0.072,-0.033,-0.018,99.0,100.0,99.0,13.3,1505.2,324.4,-0.8,1.8,2470.441,13.28,0.079,245.4
2021-05-17T02:55:03,42.805,6.029,-0.082,-0.036,-0.042,102.0,98.0,101.0,13.3,1505.2,329.8,-0.8,1.9,2470.448,13.28,0.089,246.3
2021-05-17T02:58:03,42.805,6.029,-0.074,-0.046,-0.037,100.0,100.0,99.0,13.3,1505.2,327.1,-0.8,1.8,2470.419,13.28,0.087,238.1
2021-05-17T03:04:03,42.805,6.029,-0.048,-0.022,0.003,100.0,101.0,99.0,13.4,1505.2,328.2,-0.8,1.8,2470.518,13.28,0.052,245.4
2021-05-17T03:07:03,42.805,6.029,-0.081,-0.029,-0.017,101.0,98.0,100.0,13.3,1505.2,326.6,-0.8,1.8,2470.497,13.28,0.086,250.3
2021-05-17T03:10:03,42.805,6.029,-0.059,-0.022,-0.015,99.0,100.0,99.0,13.4,1505.2,326.8,-0.7,1.8,2470.493,13.28,0.062,249.6
2021-05-17T03:13:03,42.805,6.029,-0.056,-0.034,-0.026,101.0,101.0,99.0,13.4,1505.2,324.8,-0.7,1.8,2470.478,13.28,0.065,238.7
2021-05-17T03:16:03,42.805,6.029,-0.074,0.0,-0.026,100.0,99.0,99.0,13.4,1505.2,328.8,-0.8,1.8,2470.5,13.28,0.073,270.0
2021-05-17T03:19:03,42.805,6.029,-0.047,-0.022,-0.01,101.0,98.0,101.0,13.4,1505.2,328.1,-0.8,1.8,2470.467,13.28,0.051,244.9
2021-05-17T03:22:03,42.805,6.029,-0.066,-0.022,-0.009,100.0,99.0,100.0,13.4,1505.2,328.3,-0.7,1.8,2470.49,13.28,0.069,251.6
2021-05-17T03:25:03,42.805,6.029,-0.07,-0.023,-0.041,101.0,100.0,99.0,13.4,1505.2,327.6,-0.8,1.9,2470.495,13.28,0.073,251.8
2021-05-17T03:28:03,42.805,6.029,-0.074,-0.003,-0.007,99.0,100.0,99.0,13.3,1505.2,327.4,-0.8,1.8,2470.494,13.28,0.074,267.7
2021-05-17T03:31:03,42.805,6.029,-0.054,-0.029,-0.023,99.0,100.0,100.0,13.3,1505.2,326.1,-0.8,1.8,2470.441,13.28,0.061,241.8
2021-05-17T03:34:03,42.805,6.029,-0.038,-0.034,-0.02,101.0,100.0,100.0,13.3,1505.2,325.0,-0.8,1.9,2470.44,13.28,0.05,228.2
2021-05-17T03:37:03,42.805,6.029,-0.049,-0.035,-0.043,101.0,100.0,99.0,13.4,1505.2,327.5,-0.8,1.8,2470.489,13.28,0.06,234.5
2021-05-17T03:40:03,42.805,6.029,-0.06,-0.014,-0.003,100.0,101.0,100.0,13.4,1505.2,325.5,-0.7,1.8,2470.46,13.28,0.061,256.9
2021-05-17T03:43:03,42.805,6.029,-0.053,-0.034,-0.028,101.0,99.0,100.0,13.3,1505.2,328.7,-0.7,1.8,2470.442,13.28,0.062,237.3
2021-05-17T03:46:03,42.805,6.029,-0.038,-0.008,0.008,101.0,99.0,100.0,13.3,1505.2,326.1,-0.8,1.8,2470.463,13.28,0.038,258.1
2021-05-17T03:49:03,42.805,6.029,-0.041,-0.022,-0.009,101.0,101.0,100.0,13.3,1505.2,327.2,-0.7,1.8,2470.459,13.28,0.046,241.8
2021-05-17T03:52:03,42.805,6.029,-0.068,-0.055,-0.053,101.0,101.0,100.0,13.4,1505.2,328.1,-0.7,1.8,2470.448,13.28,0.087,231.0
2021-05-17T03:55:03,42.805,6.029,-0.058,-0.028,-0.049,101.0,101.0,100.0,13.4,1505.2,324.8,-0.8,1.8,2470.484,13.28,0.064,244.2
2021-05-17T03:58:03,42.805,6.029,-0.045,-0.009,0.006,101.0,102.0,99.0,13.4,1505.2,327.0,-0.7,1.8,2470.489,13.28,0.045,258.7
2021-05-17T04:04:03,42.805,6.029,-0.066,-0.018,-0.002,100.0,100.0,101.0,13.3,1505.2,329.3,-0.8,1.8,2470.467,13.28,0.068,254.7
2021-05-17T04:07:03,42.805,6.029,-0.053,-0.046,-0.021,101.0,101.0,100.0,13.4,1505.2,325.5,-0.7,1.8,2470.465,13.28,0.07,229.0
2021-05-17T04:10:03,42.805,6.029,-0.057,-0.024,-0.022,100.0,101.0,99.0,13.4,1505.2,326.6,-0.7,1.8,2470.464,13.28,0.061,247.2
2021-05-17T04:13:03,42.805,6.029,-0.056,-0.052,-0.025,100.0,100.0,100.0,13.3,1505.2,326.8,-0.8,1.8,2470.42,13.28,0.076,227.1
2021-05-17T04:16:03,42.805,6.029,-0.065,-0.019,-0.01,102.0,99.0,99.0,13.4,1505.2,325.8,-0.8,1.8,2470.458,13.28,0.067,253.7
2021-05-17T04:19:03,42.805,6.029,-0.059,-0.018,-0.021,101.0,100.0,99.0,13.4,1505.2,329.3,-0.7,1.8,2470.491,13.28,0.061,253.0
2021-05-17T04:22:03,42.805,6.029,-0.08,-0.036,-0.021,101.0,100.0,99.0,13.4,1505.2,325.9,-0.8,1.8,2470.474,13.28,0.087,245.8
2021-05-17T04:25:03,42.805,6.029,-0.04,-0.009,0.017,101.0,100.0,99.0,13.4,1505.2,325.6,-0.8,1.8,2470.424,13.28,0.041,257.3
2021-05-17T04:28:03,42.805,6.029,-0.059,-0.027,-0.005,102.0,102.0,100.0,13.3,1505.2,325.9,-0.8,1.8,2470.487,13.28,0.064,245.4
2021-05-17T04:31:03,42.805,6.029,-0.048,-0.041,0.006,101.0,101.0,100.0,13.4,1505.2,324.4,-0.8,1.8,2470.438,13.28,0.063,229.5
2021-05-17T04:34:03,42.805,6.029,-0.034,-0.023,-0.008,100.0,100.0,101.0,13.4,1505.2,326.4,-0.8,1.8,2470.452,13.28,0.041,235.9
2021-05-17T04:37:03,42.805,6.029,-0.057,-0.009,-0.024,101.0,101.0,100.0,13.4,1505.2,328.0,-0.8,1.8,2470.467,13.28,0.057,261.0
2021-05-17T04:40:03,42.805,6.029,-0.06,-0.022,-0.023,101.0,101.0,100.0,13.4,1505.2,327.9,-0.8,1.9,2470.442,13.28,0.063,249.9
2021-05-17T04:43:03,42.805,6.029,-0.05,-0.003,-0.031,101.0,100.0,99.0,13.4,1505.2,327.3,-0.8,1.8,2470.442,13.28,0.05,266.6
2021-05-17T04:46:03,42.805,6.029,-0.07,-0.018,-0.013,101.0,102.0,99.0,13.3,1505.2,326.1,-0.8,1.8,2470.46,13.28,0.072,255.6
2021-05-17T04:49:03,42.805,6.029,-0.034,-0.035,-0.008,100.0,101.0,100.0,13.3,1505.2,328.8,-0.8,1.9,2470.442,13.28,0.048,224.2
2021-05-17T04:52:03,42.805,6.029,-0.046,-0.013,-0.02,100.0,101.0,100.0,13.4,1505.2,327.4,-0.7,1.8,2470.444,13.28,0.047,254.2
2021-05-17T04:55:03,42.805,6.029,-0.1,0.002,0.001,101.0,101.0,100.0,13.3,1505.2,328.8,-0.7,1.8,2470.443,13.28,0.1,271.1
2021-05-17T04:58:03,42.805,6.029,-0.045,-0.014,0.014,101.0,101.0,99.0,13.4,1505.2,326.4,-0.8,1.8,2470.462,13.28,0.047,252.7
2021-05-17T05:04:03,42.805,6.029,-0.053,-0.006,-0.001,100.0,99.0,100.0,13.3,1505.2,325.8,-0.8,1.8,2470.456,13.28,0.053,263.5
2021-05-17T05:07:03,42.805,6.029,-0.043,-0.025,0.008,100.0,101.0,100.0,13.4,1505.2,327.2,-0.7,1.9,2470.456,13.28,0.049,239.8
2021-05-17T05:10:03,42.805,6.029,-0.055,-0.013,-0.01,101.0,101.0,99.0,13.4,1505.2,327.9,-0.8,1.8,2470.43,13.28,0.056,256.7
2021-05-17T05:13:03,42.805,6.029,-0.065,-0.034,-0.007,101.0,101.0,100.0,13.4,1505.2,324.3,-0.8,1.8,2470.416,13.28,0.073,242.4
2021-05-17T05:16:03,42.805,6.029,-0.045,-0.024,0.0,101.0,100.0,99.0,13.4,1505.2,325.4,-0.8,1.8,2470.451,13.28,0.051,241.9
2021-05-17T05:19:03,42.805,6.029,-0.074,-0.023,-0.04,100.0,101.0,99.0,13.3,1505.2,326.9,-0.7,1.8,2470.439,13.28,0.077,252.7
2021-05-17T05:22:03,42.805,6.029,-0.044,-0.028,0.0,101.0,99.0,99.0,13.4,1505.2,324.2,-0.8,1.8,2470.403,13.28,0.052,237.5
2021-05-17T05:25:03,42.805,6.029,-0.036,-0.021,-0.007,99.0,100.0,99.0,13.3,1505.2,326.5,-0.7,1.8,2470.445,13.28,0.041,239.7
2021-05-17T05:28:03,42.805,6.029,-0.07,-0.013,-0.012,100.0,100.0,100.0,13.3,1505.2,324.3,-0.7,1.8,2470.399,13.28,0.071,259.5
2021-05-17T05:31:03,42.805,6.029,-0.093,-0.023,-0.01,100.0,100.0,100.0,13.3,1505.2,327.3,-0.8,1.8,2470.438,13.28,0.095,256.1
2021-05-17T05:34:03,42.805,6.029,-0.062,-0.024,-0.034,101.0,100.0,100.0,13.4,1505.2,325.4,-0.8,1.8,2470.421,13.28,0.066,248.8
2021-05-17T05:37:03,42.805,6.029,-0.05,-0.028,0.0,101.0,101.0,100.0,13.3,1505.2,328.9,-0.8,1.8,2470.419,13.28,0.057,240.7
2021-05-17T05:40:03,42.805,6.029,-0.053,-0.013,0.023,102.0,101.0,100.0,13.4,1505.2,325.9,-0.8,1.8,2470.426,13.28,0.054,256.2
2021-05-17T05:43:03,42.805,6.029,-0.064,-0.012,-0.018,100.0,101.0,99.0,13.4,1505.2,325.7,-0.7,1.8,2470.413,13.28,0.065,259.4
2021-05-17T05:46:03,42.805,6.029,-0.055,-0.021,-0.01,100.0,101.0,100.0,13.4,1505.2,325.1,-0.7,1.9,2470.379,13.28,0.058,249.1
2021-05-17T05:49:03,42.805,6.029,-0.059,0.002,0.036,101.0,100.0,100.0,13.4,1505.2,325.2,-0.7,1.8,2470.433,13.28,0.059,271.9
2021-05-17T05:52:03,42.805,6.029,-0.054,-0.016,-0.039,100.0,101.0,100.0,13.3,1505.2,324.5,-0.7,1.9,2470.403,13.28,0.056,253.5
2021-05-17T05:55:03,42.805,6.029,-0.04,-0.027,0.004,102.0,101.0,99.0,13.4,1505.2,328.9,-0.7,1.8,2470.424,13.28,0.048,236.0
2021-05-17T05:58:03,42.805,6.029,-0.047,-0.021,-0.005,103.0,101.0,100.0,13.4,1505.2,325.9,-0.7,1.8,2470.407,13.28,0.051,245.9
2021-05-17T06:04:03,42.805,6.029,-0.042,-0.018,-0.003,102.0,99.0,99.0,13.4,1505.2,328.9,-0.8,1.8,2470.464,13.28,0.045,246.8
2021-05-17T06:07:03,42.805,6.029,-0.074,-0.005,-0.003,101.0,99.0,99.0,13.4,1505.2,328.1,-0.8,1.8,2470.458,13.28,0.074,266.1
2021-05-17T06:10:03,42.805,6.029,-0.065,-0.033,-0.007,101.0,100.0,100.0,13.4,1505.2,327.4,-0.8,1.8,2470.435,13.28,0.072,243.1
2021-05-17T06:13:03,42.805,6.029,-0.065,-0.016,0.008,101.0,100.0,99.0,13.4,1505.2,324.5,-0.7,1.8,2470.474,13.28,0.066,256.2
2021-05-17T06:16:03,42.805,6.029,-0.061,-0.027,-0.024,101.0,101.0,100.0,13.4,1505.2,328.3,-0.7,1.8,2470.431,13.28,0.066,246.1
2021-05-17T06:19:03,42.805,6.029,-0.054,-0.012,-0.007,101.0,100.0,101.0,13.4,1505.2,326.0,-0.8,1.8,2470.426,13.28,0.055,257.5
2021-05-17T06:22:03,42.805,6.029,-0.041,-0.021,0.0,102.0,100.0,99.0,13.4,1505.2,326.3,-0.7,1.8,2470.449,13.28,0.046,242.9
2021-05-17T06:25:03,42.805,6.029,-0.067,-0.041,-0.045,102.0,100.0,100.0,13.4,1505.2,329.4,-0.7,1.8,2470.436,13.28,0.078,238.5
2021-05-17T06:28:03,42.805,6.029,-0.039,-0.025,-0.009,99.0,99.0,101.0,13.4,1505.2,328.1,-0.8,1.8,2470.425,13.28,0.046,237.3
2021-05-17T06:31:03,42.805,6.029,-0.082,-0.013,-0.016,100.0,100.0,101.0,13.3,1505.2,329.2,-0.8,1.8,2470.401,13.28,0.083,261.0
2021-05-17T06:34:03,42.805,6.029,-0.061,-0.009,-0.007,101.0,100.0,99.0,13.4,1505.2,328.1,-0.8,1.8,2470.415,13.28,0.061,261.6
2021-05-17T06:37:03,42.805,6.029,-0.042,-0.048,-0.032,99.0,100.0,100.0,13.4,1505.2,326.8,-0.8,1.8,2470.459,13.28,0.063,221.2
2021-05-17T06:40:03,42.805,6.029,-0.057,-0.019,0.012,101.0,100.0,99.0,13.4,1505.2,327.8,-0.8,1.8,2470.407,13.28,0.06,251.6
2021-05-17T06:43:03,42.805,6.029,-0.085,-0.015,-0.038,99.0,100.0,100.0,13.4,1505.2,329.1,-0.8,1.8,2470.461,13.28,0.086,260.0
2021-05-17T06:46:03,42.805,6.029,-0.092,-0.028,-0.045,101.0,98.0,99.0,13.3,1505.2,324.6,-0.7,1.8,2470.416,13.28,0.096,253.1
2021-05-17T06:49:03,42.805,6.029,-0.071,-0.031,-0.001,100.0,101.0,100.0,13.4,1505.2,326.7,-0.8,1.8,2470.431,13.28,0.077,246.4
2021-05-17T06:52:03,42.805,6.029,-0.057,-0.036,-0.007,99.0,102.0,99.0,13.4,1505.2,326.0,-0.7,1.8,2470.447,13.28,0.067,237.7
2021-05-17T06:55:03,42.805,6.029,-0.033,-0.035,-0.032,101.0,100.0,100.0,13.4,1505.2,327.3,-0.7,1.9,2470.42,13.28,0.048,223.3
2021-05-17T06:58:03,42.805,6.029,-0.05,-0.029,-0.023,102.0,100.0,100.0,13.4,1505.2,324.4,-0.8,1.8,2470.456,13.28,0.057,239.9
2021-05-17T07:04:03,42.805,6.029,-0.062,0.0,0.0,102.0,101.0,99.0,13.4,1505.2,327.7,-0.8,1.8,2470.494,13.28,0.061,270.0
2021-05-17T07:07:03,42.805,6.029,-0.039,-0.027,0.005,99.0,101.0,101.0,13.4,1505.2,328.2,-0.7,1.8,2470.487,13.28,0.047,235.3
2021-05-17T07:10:03,42.805,6.029,-0.088,-0.036,-0.022,101.0,100.0,99.0,13.3,1505.2,325.8,-0.8,1.8,2470.488,13.28,0.095,247.8
2021-05-17T07:13:03,42.805,6.029,-0.055,-0.029,-0.001,100.0,101.0,99.0,13.4,1505.2,324.5,-0.7,1.8,2470.412,13.28,0.062,242.2
2021-05-17T07:16:03,42.805,6.029,-0.06,-0.007,-0.025,101.0,101.0,100.0,13.4,1505.2,325.8,-0.8,1.8,2470.456,13.28,0.06,263.3
2021-05-17T07:19:03,42.805,6.029,-0.029,-0.042,-0.012,101.0,101.0,100.0,13.4,1505.2,326.1,-0.7,1.8,2470.465,13.28,0.051,214.6
2021-05-17T07:22:03,42.805,6.029,-0.061,-0.022,-0.007,100.0,101.0,101.0,13.4,1505.2,324.8,-0.8,1.8,2470.452,13.28,0.064,250.2
2021-05-17T07:25:03,42.805,6.029,-0.049,-0.009,0.012,101.0,99.0,100.0,13.4,1505.2,328.5,-0.8,1.8,2470.457,13.28,0.049,259.6
2021-05-17T07:28:03,42.805,6.029,-0.053,-0.042,-0.013,101.0,101.0,100.0,13.4,1505.2,326.7,-0.7,1.8,2470.47,13.28,0.067,231.6
2021-05-17T07:31:03,42.805,6.029,-0.065,-0.019,-0.004,100.0,101.0,99.0,13.4,1505.2,327.1,-0.8,1.8,2470.501,13.28,0.067,253.7
2021-05-17T07:34:03,42.805,6.029,-0.057,-0.038,-0.024,100.0,102.0,99.0,13.3,1505.2,327.5,-0.8,1.8,2470.452,13.28,0.068,236.3
2021-05-17T07:37:03,42.805,6.029,-0.074,-0.036,-0.007,100.0,101.0,100.0,13.3,1505.2,327.9,-0.8,1.8,2470.496,13.28,0.082,244.1
2021-05-17T07:40:03,42.805,6.029,-0.037,-0.027,-0.01,100.0,100.0,100.0,13.3,1505.2,328.1,-0.8,1.9,2470.466,13.28,0.045,233.9
2021-05-17T07:43:03,42.805,6.029,-0.069,-0.021,-0.044,101.0,101.0,100.0,13.4,1505.2,324.4,-0.7,1.8,2470.458,13.28,0.072,253.1
2021-05-17T07:46:03,42.805,6.029,-0.06,-0.027,-0.039,100.0,100.0,100.0,13.3,1505.2,326.5,-0.7,1.8,2470.462,13.28,0.065,245.8
2021-05-17T07:49:03,42.805,6.029,-0.037,-0.039,-0.028,100.0,100.0,100.0,13.4,1505.2,324.1,-0.7,1.8,2470.462,13.28,0.053,223.5
2021-05-17T07:52:03,42.805,6.029,-0.061,-0.007,-0.008,100.0,100.0,100.0,13.3,1505.2,328.3,-0.8,1.8,2470.468,13.28,0.061,263.5
2021-05-17T07:55:03,42.805,6.029,-0.043,-0.034,0.011,100.0,101.0,101.0,13.3,1505.2,325.5,-0.8,1.8,2470.467,13.28,0.054,231.7
2021-05-17T07:58:03,42.805,6.029,-0.039,-0.023,0.014,100.0,100.0,99.0,13.4,1505.2,324.4,-0.8,1.8,2470.479,13.28,0.045,239.5
2021-05-17T08:04:03,42.805,6.029,-0.046,-0.009,-0.008,101.0,101.0,99.0,13.4,1505.2,326.2,-0.7,1.8,2470.465,13.28,0.046,258.9
2021-05-17T08:07:03,42.805,6.029,-0.053,-0.014,0.013,100.0,100.0,100.0,13.4,1505.2,328.5,-0.7,1.8,2470.513,13.28,0.054,255.2
2021-05-17T08:10:03,42.805,6.029,-0.06,-0.03,0.01,101.0,101.0,100.0,13.3,1505.2,326.9,-0.7,1.8,2470.487,13.28,0.067,243.4
2021-05-17T08:13:03,42.805,6.029,-0.044,-0.012,0.03,100.0,101.0,101.0,13.3,1505.2,326.6,-0.8,1.8,2470.507,13.28,0.045,254.7
2021-05-17T08:16:03,42.805,6.029,-0.052,-0.027,0.011,100.0,101.0,100.0,13.4,1505.2,325.5,-0.8,1.8,2470.501,13.28,0.058,242.6
2021-05-17T08:19:03,42.805,6.029,-0.048,-0.011,0.018,101.0,100.0,100.0,13.4,1505.2,328.8,-0.8,1.8,2470.45,13.28,0.049,257.1
2021-05-17T08:22:03,42.805,6.029,-0.045,-0.015,0.015,102.0,100.0,101.0,13.4,1505.2,324.5,-0.7,1.8,2470.521,13.28,0.047,251.6
2021-05-17T08:25:03,42.805,6.029,-0.052,-0.015,0.003,102.0,101.0,99.0,13.4,1505.2,324.8,-0.8,1.8,2470.525,13.28,0.054,253.9
2021-05-17T08:28:03,42.805,6.029,-0.038,-0.026,-0.016,101.0,101.0,101.0,13.3,1505.2,327.1,-0.8,1.8,2470.461,13.28,0.046,235.6
2021-05-17T08:31:03,42.805,6.029,-0.056,-0.012,0.008,100.0,102.0,99.0,13.3,1505.2,325.3,-0.8,1.8,2470.488,13.28,0.057,257.9
2021-05-17T08:34:03,42.805,6.029,-0.08,-0.001,-0.014,101.0,101.0,100.0,13.4,1505.2,326.9,-0.8,1.8,2470.438,13.28,0.08,269.3
2021-05-17T08:37:03,42.805,6.029,-0.052,-0.02,-0.012,101.0,100.0,101.0,13.3,1505.2,325.7,-0.8,1.8,2470.468,13.28,0.055,249.0
2021-05-17T08:40:03,42.805,6.029,-0.064,-0.029,-0.009,102.0,100.0,100.0,13.4,1505.2,324.7,-0.7,1.9,2470.455,13.28,0.07,245.6
2021-05-17T08:43:03,42.805,6.029,-0.037,-0.033,-0.025,101.0,101.0,100.0,13.4,1505.2,328.8,-0.8,1.8,2470.466,13.28,0.049,228.3
2021-05-17T08:46:03,42.805,6.029,-0.079,-0.032,-0.023,100.0,101.0,101.0,13.4,1505.2,326.0,-0.8,1.8,2470.533,13.28,0.085,248.0
2021-05-17T08:49:03,42.805,6.029,-0.056,-0.016,-0.022,101.0,102.0,101.0,13.3,1505.2,327.8,-0.8,1.9,2470.456,13.28,0.058,254.1
2021-05-17T08:52:03,42.805,6.029,-0.016,-0.034,0.011,102.0,101.0,100.0,13.4,1505.2,324.0,-0.8,1.8,2470.452,13.28,0.037,205.2
2021-05-17T08:55:03,42.805,6.029,-0.033,-0.02,-0.015,101.0,101.0,101.0,13.4,1505.2,329.6,-0.7,1.8,2470.47,13.28,0.038,238.8
2021-05-17T08:58:03,42.805,6.029,-0.073,-0.008,-0.019,102.0,102.0,100.0,13.4,1505.2,327.8,-0.7,1.9,2470.472,13.28,0.073,263.7
2021-05-17T09:04:03,42.805,6.029,-0.042,-0.048,-0.034,101.0,101.0,101.0,13.4,1505.2,327.4,-0.7,1.8,2470.476,13.28,0.063,221.2
2021-05-17T09:07:03,42.805,6.029,-0.038,-0.029,-0.027,102.0,101.0,100.0,13.3,1505.2,324.0,-0.8,1.9,2470.516,13.28,0.047,232.7
2021-05-17T09:10:03,42.805,6.029,-0.063,-0.011,-0.011,101.0,100.0,100.0,13.4,1505.2,326.7,-0.7,1.8,2470.468,13.28,0.063,260.1
2021-05-17T09:13:03,42.805,6.029,-0.044,-0.032,-0.01,101.0,102.0,99.0,13.3,1505.2,324.2,-0.8,1.8,2470.477,13.28,0.054,234.0
2021-05-17T09:16:03,42.805,6.029,-0.039,-0.033,-0.015,102.0,103.0,100.0,13.3,1505.2,326.1,-0.8,1.8,2470.504,13.28,0.051,229.8
2021-05-17T09:19:03,42.805,6.029,-0.054,-0.034,-0.02,102.0,102.0,100.0,13.4,1505.2,326.7,-0.8,1.9,2470.472,13.28,0.063,237.8
2021-05-17T09:22:03,42.805,6.029,-0.038,-0.024,-0.011,102.0,102.0,101.0,13.4,1505.2,327.5,-0.8,1.8,2470.421,13.28,0.044,237.7
2021-05-17T09:25:03,42.805,6.029,-0.03,-0.034,0.0,101.0,101.0,100.0,13.4,1505.2,328.4,-0.8,1.8,2470.481,13.28,0.045,221.4
2021-05-17T09:28:03,42.805,6.029,-0.052,-0.021,-0.002,101.0,102.0,101.0,13.4,1505.2,327.9,-0.8,1.8,2470.47,13.28,0.056,248.0
2021-05-17T09:31:03,42.805,6.029,-0.033,-0.037,-0.022,103.0,103.0,101.0,13.3,1505.2,324.5,-0.7,1.8,2470.493,13.28,0.049,221.7
2021-05-17T09:34:03,42.805,6.029,-0.034,-0.032,-0.026,102.0,101.0,101.0,13.3,1505.2,325.4,-0.8,1.8,2470.508,13.28,0.046,226.7
2021-05-17T09:37:03,42.805,6.029,-0.039,-0.043,-0.013,102.0,101.0,100.0,13.3,1505.2,327.6,-0.7,1.9,2470.49,13.28,0.058,222.2
2021-05-17T09:40:03,42.805,6.029,-0.046,-0.015,0.016,103.0,101.0,101.0,13.3,1505.2,328.6,-0.8,1.8,2470.486,13.28,0.048,251.9
2021-05-17T09:43:03,42.805,6.029,-0.037,-0.024,-0.042,103.0,102.0,100.0,13.3,1505.2,327.8,-0.8,1.8,2470.462,13.28,0.044,237.0
2021-05-17T09:46:03,42.805,6.029,-0.027,-0.034,0.002,102.0,102.0,101.0,13.3,1505.2,324.0,-0.8,1.8,2470.496,13.28,0.043,218.5
2021-05-17T09:49:03,42.805,6.029,-0.025,-0.027,-0.019,102.0,101.0,101.0,13.4,1505.2,329.0,-0.7,1.8,2470.49,13.28,0.036,222.8
2021-05-17T09:52:03,42.805,6.029,-0.051,-0.018,0.001,102.0,103.0,101.0,13.3,1505.2,328.1,-0.8,1.8,2470.481,13.28,0.054,250.6